Weather in Pokrovskoye

Russia / Yaroslavl Oblast     57°39′35″N   38°33′34″E
temp.,
°C
wind,
m/s
gust,
m/s
humid.,
%
clouds,
%
prec.,
mm/h
press.,
hPa
HPBL,
m
14 may, fri
fri1400:00+10s23942 0.0 101658
03:00+8s3896100 0.0 1017211
06:00+10s39945 0.0 1018308
09:00+15s36695 0.0 1018871
12:00+18ssw465092 0.0 10171730
15:00+20s354847 0.0 10161750
18:00+19se366320 0.2 1014428
21:00+14se3793100 2.5 1014139
15 may, sat
sat1500:00+14se3997100 4.0 1013336
03:00+13ese3798100 4.1 1011207
06:00+14sse31197100 0.5 1011407
09:00+19s257696 0.5 1010445
12:00+22sse476142 0.7 10091290
15:00+21s4678100 6.8 1007820
18:00+19ssw598266 2.3 1006476
21:00+15s3109259 3.7 1007228
16 may, sun
sun1600:00+14s5129350 0.0 1007368
03:00+13ssw4119728 0.0 1008429
06:00+13ssw4109581 0.0 1008553
09:00+13ssw4990100 0.0 1009629
12:00+16ssw5881100 0.2 1010834
15:00+20sw576621 0.4 10101305
18:00+18ssw59807 1.1 1010891
21:00+14ssw4109366 4.1 1010283
17 may, mon
mon1700:00+13ssw38977 0.1 1011208
03:00+12ssw369818 0.1 1012136
06:00+13sw26964 0.0 1013183
09:00+17sw3480100 0.0 1014534
12:00+21sw3464100 0.0 1015973
15:00+22wsw2358100 0.0 10151204
18:00+22se1267100 0.0 1014157
21:00+16se369061 0.0 1014103
18 may, tue
tue1800:00+14ese399164 0.0 1013153
03:00+13e3109479 0.3 1012212
06:00+15ese4119133 0.0 1011255
09:00+22ese512645 0.0 1010511
12:00+25se712503 0.0 10091004
15:00+26se7135164 0.0 10081324
18:00+24se71352100 0.0 10071144
21:00+20sse51370100 0.1 1008558